Hourly Data Report for September 01, 2017

All times are specified in Local Standard Time (LST). Add 1 hour to adjust for Daylight Saving Time where and when it is observed.

PETAWAWA AWOS 2
ONTARIO

45°57'00.000" N
77°19'00.000" W
130.10 m
6106396
71625
YWA

Download Data

Hourly Data (September 2017)
Hourly Data Report for September 1, 2017
Temp Definition
°C
Dew Point Temp Definition
°C
Rel Hum Definition
%
Wind Dir Definition
10's deg

Wind Spd Definition
km/h
Visibility Definition
km
Stn Press Definition
kPa
Hmdx Definition


Wind Chill Definition


Weather Definition


TIME
00:00 8.0 5.6 85 32 13 14.5 100.60     LegendNANA
01:00 7.7 5.6 86 32 9 14.5 100.64     LegendNANA
02:00 7.1 5.6 90 31 9 14.5 100.63     LegendNANA
03:00 6.8 5.2 90 30 9 14.5 100.64     LegendNANA
04:00 6.3 4.9 91 31 9 14.5 100.63     LegendNANA
05:00 5.6 4.4 92 31 11 14.5 100.68     LegendNANA
06:00 5.7 4.5 92 31 11 14.5 100.76     LegendNANA
07:00 7.5 5.0 84 31 15 14.5 100.78     LegendNANA
08:00 9.0 5.1 76 30 19 14.5 100.83     LegendNANA
09:00 10.2 4.3 67 32 19 14.5 100.88     LegendNANA
10:00 10.8 3.8 62 32 11 14.5 100.87     LegendNANA
11:00 12.5 3.8 55 32 15 14.5 100.84     LegendNANA
12:00 14.5 4.5 51 31 20 14.5 100.77     LegendNANA
13:00 15.3 3.9 46 33 20 14.5 100.71     LegendNANA
14:00 16.0 4.4 46 30 19 14.5 100.68     LegendNANA
15:00 16.4 4.1 44 32 20 14.5 100.65     LegendNANA
16:00 16.4 3.6 42 33 17 14.5 100.63     LegendNANA
17:00 16.5 3.9 43 33 17 14.5 100.59     LegendNANA
18:00 15.4 5.4 51 32 13 14.5 100.56     LegendNANA
19:00 11.2 6.3 72 26 6 14.5 100.60     LegendNANA
20:00 11.3 6.2 71 32 6 14.5 100.65     LegendNANA
21:00 7.4 6.3 93   0 14.5 100.69     LegendNANA
22:00 5.8 5.1 95 25 4 14.5 100.73     LegendNANA
23:00 6.2 5.6 96   0 14.5 100.73     LegendNANA

Notes on Data Quality.

Legend

  • E = Estimated
  • M = Missing
  • NA = Not Available
  • ‡ = Partner data that is not subject to review by the National Climate Archives
Date modified: